Hourly Data Report for February 20, 2019

TORONTO CITY
ONTARIO
Current Station Operator: ECCC - MSC

43°40'00.000" N
79°24'00.000" W
112.50 m
6158355
71508
XTO

Download Data

Hourly Data (February 2019)
Hourly Data Report for February 20, 2019
TIME
LST
Temp Definition
°C
Dew Point Definition
°C
Rel Hum Definition
%
Precip. Amount Definition
mm

Wind Dir Definition
10's deg

Wind Spd Definition
km/h
Visibility Definition
km
Stn Press Definition
kPa
Hmdx Definition


Wind Chill Definition


Weather Definition


00:00 -6.7 -11.1 71 0.0 LegendMM LegendMM   102.04     LegendNANA
01:00 -6.4 -10.8 71 0.0 LegendMM LegendMM   102.00     LegendNANA
02:00 -6.3 -11.8 65 0.0 LegendMM LegendMM   101.98     LegendNANA
03:00 -6.5 -12.2 64 0.0 LegendMM LegendMM   101.94     LegendNANA
04:00 -6.4 -12.4 62 0.0 LegendMM LegendMM   101.85     LegendNANA
05:00 -5.3 -10.8 65 0.0 LegendMM LegendMM   101.78     LegendNANA
06:00 -5.7 -10.7 68 0.0 LegendMM LegendMM   101.79     LegendNANA
07:00 -5.5 -10.2 70 0.0 LegendMM LegendMM   101.69     LegendNANA
08:00 -4.4 -8.4 74 0.0 LegendMM LegendMM   101.63     LegendNANA
09:00 -2.6 -7.4 70 0.0 LegendMM LegendMM   101.48     LegendNANA
10:00 -2.2 -7.8 66 0.0 LegendMM LegendMM   101.33     LegendNANA
11:00 -1.5 -8.7 58 0.0 LegendMM LegendMM   101.27     LegendNANA
12:00 -0.8 -8.1 57 0.0 LegendMM LegendMM   101.18     LegendNANA
13:00 -0.4 -6.7 63 0.0 LegendMM LegendMM   100.90     LegendNANA
14:00 -0.4 -7.2 60 0.0 LegendMM LegendMM   100.69     LegendNANA
15:00 -0.5 -6.1 66 0.0 LegendMM LegendMM   100.63     LegendNANA
16:00 -0.8 -4.1 78 0.0 LegendMM LegendMM   100.45     LegendNANA
17:00 -0.9 -3.1 85 0.0 LegendMM LegendMM   100.30     LegendNANA
18:00 -0.5 -2.2 88 0.0 LegendMM LegendMM   100.22     LegendNANA
19:00 0.3 -0.9 92 0.0 LegendMM LegendMM   99.95     LegendNANA
20:00 0.7 -1.4 86 0.0 LegendMM LegendMM   99.78     LegendNANA
21:00 0.4 -1.1 90 0.5 LegendMM LegendMM   99.64     LegendNANA
22:00 0.2 -1.0 92 0.6 LegendMM LegendMM   99.55     LegendNANA
23:00 0.2 -0.8 93 1.2 LegendMM LegendMM   99.38     LegendNANA

Notes on Data Quality.

Legend

  • E = Estimated
  • M = Missing
  • NA = Not Available*
  • [empty] = Indicates an unobserved value
Date modified: